Location: Maddington
(51.2000°N, 1.9167°W)
Time: 14:33:38
(UTC+00:00)

Cosmos 1125 Rocket - Pass Details

Date: 24 June 2021
Orbit: 757 x 780 km, 74.0° (Epoch: 28 July)

Event Time Altitude Azimuth Distance (km) Brightness Sun altitude
Rises 01:58:42 0° 333° (NNW) 3,248 7.3 -11.7°
Reaches altitude 10° 02:01:06 10° 330° (NNW) 2,321 6.5 -11.5°
Maximum altitude 02:06:17 61° 251° (WSW) 877 3.6 -11.1°
Drops below altitude 10° 02:11:28 10° 172° (S) 2,319 5.5 -10.8°
Enters shadow 02:12:03 - 171° (S) 2,543 5.7 -10.7°
